Wind_Speed
21 22 23 27 29 27 27 24 22 22 21 19 17 15 14 13 11 10 12 14 16 17 16 18 19 23 23 22 26 29 27 27 30 33 35 34 26 18 12 12 11 7 4
26 23 23 26 29 31 31 29 27 26 25 23 20 18 17 16 14 13 14 16 18 18 18 18 20 24 23 20 23 27 25 26 28 31 35 36 33 25 20 13 11 10 8
27 26 24 25 28 31 32 32 30 28 28 26 22 21 20 18 18 17 16 18 20 19 19 20 21 25 23 20 21 23 25 24 25 26 29 33 32 31 23 18 17 17 12
28 29 26 27 30 29 29 32 33 30 28 27 24 23 22 21 21 20 19 19 20 20 21 22 22 25 24 21 20 22 25 22 22 24 26 28 30 30 29 25 18 18 18
30 31 32 29 28 29 30 32 34 34 34 31 29 27 25 24 24 24 23 22 24 24 24 24 25 27 25 21 19 22 23 22 19 21 21 24 24 24 25 24 22 20 21
33 34 33 31 28 28 31 32 35 36 36 36 36 32 30 27 27 26 26 27 29 29 28 28 27 28 27 23 21 21 21 23 21 20 21 22 22 22 20 19 22 22 22
35 35 35 34 32 30 29 32 36 36 36 39 37 36 35 32 32 31 30 30 31 31 31 31 30 30 29 27 24 23 22 23 24 23 21 23 22 21 21 16 16 17 14
34 34 37 38 37 34 33 34 33 34 38 37 35 37 37 38 36 35 35 35 33 33 34 34 33 33 33 30 27 26 25 25 26 26 25 23 23 23 21 16 17 19 12
35 34 36 39 40 39 39 39 37 35 32 35 36 34 38 38 39 39 40 39 38 36 36 36 36 35 35 35 32 29 29 27 26 27 28 29 27 25 24 24 19 19 25
39 38 38 38 38 42 43 44 42 39 35 32 30 35 38 38 41 43 44 43 43 41 41 40 39 38 37 37 37 35 33 30 31 29 29 30 30 29 28 28 26 26 26
42 41 40 39 38 38 38 39 42 43 42 41 37 34 34 36 40 42 45 46 45 46 45 44 43 43 39 40 40 41 38 36 35 35 33 34 34 33 34 34 36 32 31
45 43 42 42 40 38 39 41 44 46 47 46 45 43 39 37 37 40 43 45 45 47 48 50 48 46 45 44 44 44 42 41 40 39 37 37 37 39 38 37 40 39 37
47 45 43 45 47 47 45 43 43 47 50 50 50 48 47 43 40 38 40 42 42 44 45 44 47 50 49 48 48 47 45 44 42 41 40 40 41 41 43 44 44 44 43
51 48 47 46 46 48 48 47 46 47 48 50 52 51 50 46 44 43 43 42 42 41 40 41 39 41 42 45 47 46 45 46 46 45 42 42 46 47 48 49 48 46 45
55 52 50 47 47 49 48 46 46 48 49 50 50 52 52 51 50 50 48 48 46 44 43 44 41 41 40 41 45 45 44 45 43 42 43 46 49 52 53 50 49 48 47
59 57 51 50 50 49 47 45 44 47 51 53 53 55 56 56 58 55 52 50 51 49 47 45 45 47 45 44 42 41 40 41 42 45 49 51 54 54 52 50 49 47 47
63 60 54 51 50 48 44 40 45 51 55 58 53 53 56 58 60 59 55 53 52 51 50 49 50 49 46 44 43 43 44 47 50 51 53 57 54 49 46 45 44 45 48
65 62 58 52 49 46 40 39 41 31 45 36 39 42 47 52 57 58 57 55 55 55 54 55 52 48 45 47 48 49 51 53 54 53 47 43 42 42 43 44 45 47 50
69 59 57 54 49 51 49 40 39 50 62 63 59 55 49 50 52 53 53 53 54 52 51 51 54 52 51 52 52 51 50 46 43 42 43 44 46 47 48 49 50 51 54
68 63 65 64 58 50 62 59 67 67 68 66 63 55 53 49 47 48 49 50 53 55 57 59 60 56 52 49 47 44 44 45 46 48 49 50 51 51 52 53 54 55 56
76 75 73 74 71 67 75 64 67 72 73 65 61 59 55 52 51 49 49 49 49 50 50 49 48 48 48 47 49 49 50 51 51 52 54 54 54 55 56 57 58 59 60
84 81 80 82 82 78 80 79 76 74 68 69 66 60 58 57 57 56 52 52 53 52 52 51 52 52 52 53 55 57 58 59 59 59 59 58 58 59 59 60 62 62 64
90 87 84 84 84 84 85 88 82 81 83 81 75 69 67 66 64 63 62 61 60 60 59 59 60 60 62 64 65 64 63 63 63 64 65 65 65 65 66 67 68 69 70
94 91 89 86 86 84 83 82 84 86 87 84 80 77 74 72 70 70 71 71 70 69 69 69 68 68 67 67 68 68 68 68 68 69 70 71 72 72 72 72 73 73 74
95 93 91 87 86 86 85 85 83 81 82 82 81 79 78 77 78 78 76 76 76 75 74 73 72 71 71 72 73 73 74 75 75 75 75 75 76 77 77 77 77 78 78
101 99 96 95 93 91 90 89 88 88 87 86 85 84 83 82 82 81 81 81 81 80 78 77 76 76 76 78 78 78 80 80 80 81 81 81 82 83 83 84 83 83 85
Wind_Direction
217 225 225 229 232 226 229 230 230 237 244 249 252 250 241 249 265 286 300 310 315 322 326 329 338 345 353 355 359 2 4 6 10 16 19 23 29 27 30 17 27 34 34
223 223 230 229 233 232 230 232 233 237 242 244 246 249 245 249 258 271 291 297 305 312 320 323 330 338 344 350 353 359 359 0 3 11 11 12 19 31 27 30 9 335 303
230 226 227 232 232 236 236 237 237 238 241 245 245 247 246 247 254 262 279 288 298 305 313 316 321 330 336 340 343 352 356 353 357 5 7 3 5 14 19 22 22 13 341
235 230 227 228 233 235 235 240 241 240 242 245 249 250 250 251 253 256 266 279 288 300 307 311 312 322 327 331 333 343 355 348 347 349 355 359 356 360 6 7 22 18 27
235 234 229 227 231 236 235 237 243 242 241 243 245 248 251 252 253 256 260 269 276 286 296 303 309 313 319 323 323 333 343 347 335 339 340 346 348 350 357 357 0 8 5
234 236 234 230 232 232 238 240 243 245 245 244 245 245 249 253 257 257 259 263 269 276 284 292 301 304 309 313 309 319 328 337 335 330 331 336 337 337 345 346 349 0 9
240 239 235 234 234 235 237 240 244 246 250 250 249 250 249 249 255 260 262 263 267 271 276 282 289 295 300 303 304 307 317 322 328 333 329 327 331 324 329 337 332 340 25
241 243 239 234 235 234 237 241 244 246 245 248 253 254 254 252 253 257 261 263 265 268 271 276 281 286 291 296 297 301 303 310 318 321 325 327 317 319 319 319 320 320 336
240 243 243 240 240 238 238 243 247 250 252 249 248 253 256 255 254 256 257 260 263 265 268 270 274 277 282 288 291 295 300 297 303 309 315 316 314 308 311 308 299 298 307
239 239 240 241 244 241 242 242 244 247 249 250 250 252 254 255 257 257 258 259 261 264 265 268 269 272 275 280 285 290 291 297 292 298 300 305 311 302 295 295 291 282 283
236 239 240 240 242 246 252 254 252 249 247 249 250 253 257 256 256 259 261 262 263 262 263 265 267 269 270 273 279 283 287 290 292 288 293 299 304 306 294 291 291 286 282
236 237 242 239 241 244 247 249 251 253 252 251 252 253 255 259 264 262 262 264 264 264 267 266 266 267 269 272 275 279 285 288 289 289 287 294 297 299 300 290 286 290 290
236 238 241 244 244 244 247 250 250 252 253 252 252 251 252 254 261 265 267 267 267 266 268 272 270 268 268 270 273 277 281 284 285 284 283 285 293 295 297 296 290 289 291
233 237 240 242 246 250 252 254 254 253 253 253 253 255 254 255 257 260 264 265 267 271 273 278 282 279 275 272 272 274 276 279 282 285 286 288 292 294 297 295 289 288 291
234 237 240 240 241 245 248 253 254 256 258 257 255 252 253 252 255 256 257 261 267 269 275 279 280 275 270 266 269 271 275 278 281 281 285 287 290 293 293 290 286 284 288
234 236 235 239 241 242 245 249 254 256 256 254 253 251 249 251 252 254 257 260 263 269 273 275 277 277 273 272 275 276 277 279 280 283 284 288 291 291 288 284 282 284 288
235 236 235 237 243 241 244 250 255 258 259 255 252 252 254 256 256 257 257 261 264 268 269 274 274 270 269 270 272 274 277 278 280 283 283 286 289 286 288 288 287 287 291
235 234 234 233 238 239 240 253 264 278 236 260 252 254 257 256 255 256 257 259 262 263 267 269 269 264 267 271 273 275 276 277 277 282 283 281 283 285 288 288 288 289 291
233 230 233 232 230 228 237 241 240 252 249 255 255 262 263 258 256 256 257 257 260 261 264 263 268 272 273 274 274 275 276 277 278 278 278 281 283 286 287 287 288 289 291
228 230 231 233 226 218 235 232 241 243 242 249 257 263 261 260 260 259 260 259 258 259 261 265 269 272 273 273 272 272 273 275 276 278 280 283 284 286 288 289 291 291 292
232 232 231 233 229 223 225 233 235 234 240 254 256 255 258 261 262 262 262 263 264 264 265 265 266 267 270 271 272 274 276 278 281 281 281 282 284 287 288 289 290 291 293
233 233 234 234 233 227 228 232 235 238 247 249 251 254 258 261 263 263 263 263 264 264 264 264 266 267 268 269 272 274 275 277 278 280 282 285 286 287 289 291 292 294 295
235 237 234 236 238 236 234 234 239 242 245 251 255 256 256 258 260 262 263 263 264 264 265 266 268 269 271 272 274 276 279 281 283 285 286 287 288 290 291 293 294 294 295
239 240 239 238 238 241 242 242 242 244 247 249 250 252 254 255 257 259 261 263 264 266 268 268 269 270 272 275 277 280 282 284 284 285 286 287 288 290 291 292 293 293 294
240 241 243 243 243 244 245 246 245 246 248 249 251 252 254 257 258 259 260 263 265 267 269 272 274 276 277 278 278 280 281 281 282 283 285 287 288 288 289 291 291 292 294
242 244 245 246 245 244 245 247 249 250 251 252 253 254 257 259 261 262 263 264 265 266 268 271 273 274 275 276 277 278 279 279 280 283 284 284 286 288 289 289 291 291 292
Height
10982 10986 10990 10993 10997 11002 11004 11006 11008 11010 11013 11015 11016 11017 11018 11018 11019 11020 11020 11019 11019 11018 11017 11014 11011 11008 11007 11003 11000 10996 10992 10988 10984 10979 10976 10972 10968 10963 10961 10958 10957 10957 10957
10977 10980 10984 10988 10992 10995 10999 11001 11004 11006 11008 11010 11012 11014 11014 11015 11016 11017 11017 11016 11016 11016 11015 11013 11010 11007 11004 11002 11000 10996 10992 10988 10984 10980 10975 10972 10970 10967 10963 10961 10959 10958 10956
10971 10974 10978 10982 10985 10989 10993 10996 10999 11001 11002 11005 11007 11009 11010 11010 11011 11013 11014 11013 11012 11013 11012 11011 11008 11005 11003 11001 10998 10996 10993 10989 10985 10981 10979 10974 10971 10969 10966 10963 10961 10957 10954
10965 10968 10970 10974 10977 10982 10987 10990 10993 10995 10997 10999 11002 11004 11004 11005 11007 11008 11010 11010 11009 11009 11009 11008 11006 11004 11001 10999 10997 10994 10992 10988 10985 10982 10979 10977 10973 10969 10965 10962 10961 10958 10956
10958 10961 10963 10966 10971 10976 10980 10983 10986 10989 10990 10993 10996 10998 11000 11000 11001 11003 11004 11005 11005 11005 11005 11004 11003 11001 10999 10998 10995 10993 10991 10988 10985 10983 10981 10978 10975 10971 10966 10962 10959 10958 10955
10949 10951 10956 10960 10964 10968 10972 10976 10979 10981 10984 10986 10988 10992 10994 10995 10995 10996 10998 10999 11000 11000 10999 10999 10999 10998 10996 10994 10993 10991 10989 10986 10984 10981 10978 10976 10973 10970 10967 10962 10957 10956 10953
10941 10944 10948 10953 10956 10960 10964 10968 10971 10973 10977 10978 10981 10984 10986 10988 10988 10989 10991 10992 10993 10994 10994 10994 10993 10993 10992 10991 10989 10987 10985 10983 10981 10978 10976 10973 10971 10969 10965 10961 10957 10955 10954
10933 10937 10941 10945 10948 10953 10957 10959 10962 10966 10968 10970 10973 10975 10978 10980 10980 10981 10982 10983 10985 10986 10986 10986 10987 10986 10986 10986 10985 10983 10981 10978 10974 10973 10972 10970 10967 10965 10963 10960 10955 10951 10951
10924 10928 10932 10936 10940 10945 10948 10950 10954 10958 10960 10962 10964 10967 10967 10970 10971 10971 10971 10974 10975 10978 10978 10979 10979 10979 10979 10979 10978 10977 10975 10974 10970 10967 10964 10962 10961 10960 10958 10955 10954 10949 10943
10914 10918 10922 10927 10931 10935 10938 10941 10946 10950 10952 10954 10955 10956 10959 10961 10961 10962 10962 10965 10967 10968 10969 10970 10971 10972 10971 10970 10969 10969 10968 10968 10964 10961 10959 10957 10955 10954 10953 10952 10949 10945 10942
10904 10909 10913 10917 10921 10925 10929 10933 10936 10939 10942 10944 10946 10948 10950 10951 10951 10952 10953 10954 10957 10958 10959 10960 10961 10962 10963 10962 10960 10960 10959 10959 10958 10954 10951 10948 10947 10945 10944 10942 10939 10937 10934
10896 10900 10904 10908 10911 10915 10917 10920 10923 10926 10929 10932 10935 10938 10940 10942 10943 10943 10942 10943 10947 10947 10949 10951 10951 10952 10952 10952 10951 10950 10949 10948 10947 10945 10944 10941 10938 10935 10934 10932 10930 10926 10923
10885 10889 10894 10897 10900 10903 10906 10908 10912 10914 10916 10918 10922 10925 10929 10932 10933 10934 10933 10933 10935 10936 10937 10939 10940 10941 10943 10942 10941 10940 10939 10938 10937 10934 10933 10931 10929 10926 10923 10921 10918 10914 10910
10870 10875 10881 10885 10889 10893 10896 10898 10900 10901 10902 10905 10908 10912 10916 10920 10922 10924 10924 10924 10924 10926 10928 10928 10929 10930 10931 10931 10930 10929 10928 10927 10926 10924 10923 10921 10918 10915 10912 10909 10906 10904 10900
10856 10862 10868 10873 10877 10880 10883 10887 10888 10889 10892 10894 10896 10899 10903 10906 10908 10912 10913 10913 10916 10916 10918 10918 10919 10918 10918 10918 10917 10917 10917 10917 10915 10914 10913 10910 10907 10904 10901 10898 10894 10891 10889
10841 10847 10855 10859 10864 10869 10872 10874 10877 10878 10878 10880 10883 10885 10888 10891 10893 10897 10900 10903 10905 10907 10907 10907 10907 10907 10906 10905 10906 10906 10906 10905 10904 10903 10901 10898 10894 10891 10888 10885 10882 10880 10877
10828 10834 10841 10847 10851 10858 10862 10866 10866 10864 10864 10869 10871 10872 10874 10877 10881 10884 10886 10889 10892 10894 10893 10894 10894 10893 10893 10893 10893 10893 10893 10893 10891 10889 10887 10884 10881 10877 10875 10873 10871 10868 10865
10813 10821 10826 10833 10839 10844 10851 10854 10858 10843 10851 10852 10857 10860 10862 10864 10867 10869 10872 10876 10877 10879 10880 10880 10880 10879 10880 10880 10880 10879 10879 10878 10876 10875 10873 10871 10869 10866 10864 10862 10859 10855 10852
10798 10805 10811 10819 10827 10834 10838 10842 10846 10846 10844 10844 10846 10848 10849 10851 10854 10856 10858 10860 10863 10865 10865 10865 10867 10866 10866 10865 10865 10864 10863 10862 10862 10861 10860 10859 10857 10855 10853 10850 10847 10844 10839
10780 10790 10794 10800 10809 10809 10820 10824 10826 10825 10829 10828 10829 10833 10837 10839 10841 10843 10844 10847 10848 10850 10851 10853 10852 10853 10852 10852 10851 10851 10850 10849 10849 10849 10848 10846 10844 10842 10839 10837 10834 10830 10827
10761 10769 10777 10782 10790 10795 10795 10800 10807 10811 10811 10810 10817 10819 10823 10826 10827 10830 10832 10833 10835 10835 10837 10838 10839 10839 10839 10838 10838 10837 10837 10837 10836 10835 10833 10832 10830 10827 10824 10822 10819 10816 10812
10744 10752 10758 10764 10772 10779 10782 10785 10789 10792 10795 10799 10801 10802 10806 10810 10812 10815 10818 10819 10820 10822 10823 10825 10826 10826 10825 10824 10823 10822 10821 10821 10820 10818 10816 10814 10813 10811 10808 10805 10802 10799 10795
10723 10732 10740 10746 10751 10758 10766 10771 10773 10776 10778 10779 10780 10784 10789 10792 10796 10798 10801 10802 10805 10806 10808 10809 10810 10810 10809 10809 10808 10807 10805 10804 10802 10801 10799 10796 10794 10792 10789 10786 10783 10781 10778
10705 10712 10721 10728 10732 10737 10744 10751 10756 10759 10762 10763 10767 10770 10772 10775 10779 10782 10785 10787 10789 10791 10792 10792 10792 10792 10792 10792 10790 10789 10787 10786 10785 10782 10780 10778 10776 10774 10771 10768 10765 10762 10759
10688 10695 10703 10711 10719 10723 10726 10730 10733 10737 10740 10743 10748 10751 10754 10758 10761 10764 10768 10770 10772 10773 10774 10774 10774 10773 10773 10772 10771 10770 10768 10767 10765 10763 10761 10759 10757 10753 10751 10749 10745 10741 10739
10668 10676 10684 10690 10695 10701 10706 10710 10714 10717 10721 10724 10729 10732 10737 10740 10742 10745 10747 10749 10751 10752 10753 10753 10753 10752 10751 10749 10749 10748 10747 10745 10743 10741 10740 10737 10734 10731 10729 10726 10724 10720 10716